Home   Weather   Talkeetna   Past weeks

Flag for USA Past Weather in Talkeetna, Alaska, USA — Yesterday and Last 2 Weeks

Now
51 °F

Mostly cloudy.


Feels Like: 50 °F
Forecast: 49 / 56 °F
Wind: 5 mph from North

Location: Talkeetna Weather Reporting Station

Current Time: Aug 20, 2017 at 11:30:49 am

Latest Report: Aug 20, 2017 at 10:53 am


Visibility: 10 mi

Pressure: 29.74 "Hg

Humidity: 92%

Dew Point: 49 °F

Location of TalkeetnaLocation

Past Weather in Talkeetna — Graph

°F

Talkeetna Temperature Yesterday

Maximum temperature yesterday: 58 °F (at 2:53 pm)
Minimum temperature yesterday: 47 °F (at 5:53 am)
Average temperature yesterday: 52 °F

High & Low Weather Summary for the Past Weeks

 TemperatureHumidityPressure
High82 °F (Aug 5, 5:53 pm)100% (Aug 10, 6:53 am)30.22 "Hg (Aug 10, 6:53 am)
Low47 °F (Aug 17, 4:53 am)31% (Aug 5, 5:53 pm)29.29 "Hg (Aug 13, 6:14 am)
Average57 °F80%29.74 "Hg
* Reported Aug 5 9:53 am — Aug 20 9:53 am, Talkeetna. Weather by CustomWeather, © 2017

Note: Actual official high and low records may vary slightly from our data, if they occured in-between our weather recording intervals... More about our weather records

Advertising

Talkeetna Weather History for the Previous 24 Hours

Scroll right to see more
 ConditionsComfort  
Time TempWeatherWind HumidityBarometerVisibility
9:53 am
Sun, Aug 20
50 °FOvercast.5 mph96%29.75 "Hg10 mi
8:53 am49 °FLight rain. More clouds than sun.3 mph97%29.75 "Hg10 mi
7:53 am49 °FMostly cloudy.No wind97%29.74 "Hg10 mi
6:53 am49 °FOvercast.5 mph97%29.75 "Hg10 mi
5:53 am49 °FRain. Overcast.3 mph97%29.75 "Hg7 mi
4:53 am49 °FRain. Fog.No wind100%29.75 "Hg5 mi
4:38 am49 °FHeavy rain. Fog.No wind97%29.75 "Hg2 mi
4:15 am50 °FRain. Fog.No wind89%29.74 "Hg4 mi
3:53 am50 °FLight rain. Fog.No wind89%29.75 "Hg6 mi
2:53 am51 °FLight rain. Mostly cloudy.3 mph83%29.74 "Hg10 mi
1:53 am51 °FLight rain. Overcast.7 mph89%29.74 "Hg10 mi
12:53 am51 °FLight rain. Mostly cloudy.No wind92%29.73 "Hg10 mi
11:53 pm
Sat, Aug 19
52 °FOvercast.No wind93%29.73 "Hg10 mi
10:53 pm52 °FPassing clouds.No wind93%29.73 "Hg10 mi
9:53 pm54 °FOvercast.No wind86%29.72 "Hg10 mi
8:53 pm56 °FScattered clouds.5 mph77%29.72 "Hg10 mi
7:53 pm57 °FPartly sunny.No wind67%29.72 "Hg10 mi
6:53 pm58 °FOvercast.5 mph62%29.73 "Hg10 mi
5:53 pm58 °FOvercast.7 mph62%29.73 "Hg10 mi
4:53 pm57 °FScattered clouds.6 mph67%29.73 "Hg10 mi
3:53 pm57 °FPartly sunny.3 mph67%29.74 "Hg10 mi
2:53 pm58 °FScattered clouds.No wind60%29.74 "Hg10 mi
2:03 pm56 °FPartly sunny.5 mph65%29.74 "Hg10 mi
1:53 pm55 °FPartly sunny.3 mph67%29.75 "Hg10 mi
1:30 pm56 °FPartly sunny.No wind70%29.74 "Hg10 mi
12:53 pm54 °FScattered clouds.No wind74%29.76 "Hg10 mi
12:18 pm53 °FMostly cloudy.No wind80%29.75 "Hg10 mi
11:53 am52 °FMostly cloudy.3 mph83%29.76 "Hg10 mi
Weather by CustomWeather, © 2017

See weather overviewHow to use our weather pages